Weather History for Kirksville, MO

Change the Weather History Date:

Saturday, January 19, 2013

  Actual Average Record
Temperature  
Mean Temperature 45 °F 26 °F  
Max Temperature 57 °F 35 °F 65 °F (1952)
Min Temperature 33 °F 17 °F -17 °F (1943)
Degree Days  
Heating Degree Days 20 39  
Month to date heating degree days 679 741  
Since 1 July heating degree days 2921 3084  
Cooling Degree Days 0 0  
Month to date cooling degree days 0 0  
Year to date cooling degree days 0 0  
Moisture  
Dew Point 29 °F    
Average Humidity 51    
Maximum Humidity 70    
Minimum Humidity 32    
Precipitation  
Precipitation 0.00 in 0.04 in 0.62 in (1935)
Month to date precipitation 0.29 0.64  
Year to date precipitation 0.29 0.64  
Sea Level Pressure  
Sea Level Pressure 30.01 in    
Wind  
Wind Speed 14 mph (WSW)    
Max Wind Speed 24 mph    
Max Gust Speed 32 mph    
Visibility 10 miles    
Events      
T = Trace of Precipitation, MM = Missing Value Source: NWS Daily Summary

Daily Weather History Graph

Daily Weather History Graph

Search for Another Location

Airport:

Trip Planner

Search our weather history database for the weather conditions in past years. The results will help you decide how hot, cold, wet, or windy it might be!

Date:

Astronomy

Jan. 19, 2013 Rise Set
Actual Time 7:28 AM CST 5:14 PM CST
Civil Twilight 6:58 AM CST 5:43 PM CST
Nautical Twilight 6:25 AM CST 6:16 PM CST
Astronomical Twilight 5:53 AM CST 6:49 PM CST
Moon 11:40 AM CST (1/19) 1:03 AM CST (1/19)
Length of Visible Light 10h 44m
Length of Day
9h 45m
First Quarter, 57% of the Moon is Illuminated
Jan 19
First Quarter
Jan 26
Full
Feb 3
Last Quarter
Feb 10
New
Feb 17
First Quarter

Hourly Weather History & Observations

Time (CST) Temp. Windchill Dew Point Humidity Pressure Visibility Wind Dir Wind Speed Gust Speed Precip Events Conditions
12:55 AM 42.1 °F 34.9 °F 28.9 °F 60% 30.01 in 10.0 mi SW 13.8 mph 20.7 mph N/A   Clear
1:55 AM 41.0 °F 33.5 °F 28.9 °F 62% 30.01 in 10.0 mi SW 13.8 mph - N/A   Clear
2:55 AM 41.0 °F 32.8 °F 28.9 °F 62% 30.00 in 10.0 mi SW 16.1 mph 21.9 mph N/A   Clear
3:55 AM 39.9 °F 31.8 °F 30.0 °F 68% 29.98 in 10.0 mi SW 15.0 mph 23.0 mph N/A   Clear
4:55 AM 39.9 °F 32.5 °F 30.0 °F 68% 29.97 in 10.0 mi SW 12.7 mph - N/A   Clear
5:55 AM 39.0 °F 31.4 °F 30.0 °F 70% 29.96 in 10.0 mi SW 12.7 mph 20.7 mph N/A   Clear
6:55 AM 39.0 °F 30.6 °F 30.9 °F 73% 29.96 in 10.0 mi SW 15.0 mph 21.9 mph N/A   Clear
7:55 AM 39.0 °F 31.4 °F 30.9 °F 73% 29.95 in 10.0 mi SW 12.7 mph 19.6 mph N/A   Clear
8:55 AM 42.1 °F 34.9 °F 32.0 °F 67% 29.96 in 10.0 mi SW 13.8 mph 23.0 mph N/A   Clear
9:55 AM 46.0 °F 38.8 °F 32.0 °F 58% 29.97 in 10.0 mi SW 18.4 mph 24.2 mph N/A   Clear
10:55 AM 48.0 °F - 32.0 °F 54% 29.96 in 10.0 mi WSW 15.0 mph 28.8 mph N/A   Clear
11:55 AM 50.0 °F - 32.0 °F 50% 29.94 in 10.0 mi WSW 12.7 mph 24.2 mph N/A   Clear
12:55 PM 53.1 °F - 30.9 °F 43% 29.92 in 10.0 mi WSW 12.7 mph 24.2 mph N/A   Clear
1:55 PM 55.0 °F - 28.9 °F 37% 29.92 in 10.0 mi West 15.0 mph - N/A   Clear
2:55 PM 55.9 °F - 28.0 °F 34% 29.92 in 10.0 mi West 15.0 mph 24.2 mph N/A   Clear
3:55 PM 55.9 °F - 27.0 °F 33% 29.95 in 10.0 mi West 12.7 mph 31.1 mph N/A   Clear
4:55 PM 53.1 °F - 27.0 °F 37% 29.98 in 10.0 mi West 12.7 mph 19.6 mph N/A   Clear
5:55 PM 48.9 °F - 27.0 °F 43% 30.03 in 10.0 mi WNW 12.7 mph 18.4 mph N/A   Clear
6:55 PM 46.9 °F - 28.9 °F 50% 30.08 in 10.0 mi WNW 12.7 mph - N/A   Clear
7:55 PM 44.1 °F 39.0 °F 28.9 °F 55% 30.12 in 10.0 mi WNW 9.2 mph - N/A   Clear
8:55 PM 42.1 °F 36.6 °F 28.9 °F 60% 30.14 in 10.0 mi WNW 9.2 mph - N/A   Clear
9:55 PM 41.0 °F 32.8 °F 28.0 °F 60% 30.16 in 10.0 mi NW 16.1 mph 25.3 mph N/A   Clear
10:55 PM 37.9 °F 30.0 °F 27.0 °F 65% 30.20 in 10.0 mi NW 12.7 mph 18.4 mph N/A   Clear
11:55 PM 34.0 °F 24.2 °F 15.1 °F 46% 30.22 in 10.0 mi NW 15.0 mph 27.6 mph N/A   Clear